#timestamp,LO_Frequency,Hit,StdDev 
1627243215.2,286047000.4,N
1627243235.0,286047000.2,N
1627243235.9,286047000.2,N
1627243255.8,286047000.9,N
1627243275.6,286047000.3,N
1627243295.5,286047000.4,N
1627243315.3,286047000.4,N
1627243335.1,286046998.1,N
1627243355.9,286047000.2,N
1627243375.7,286047000.4,N
1627243395.5,286047000.7,N
1627243415.4,286047000.5,N
1627243435.2,286047001.2,N
1627243455.0,286046998.2,N
1627243455.9,286046998.2,N
1627243475.8,286046999.0,N
1627243495.6,286046998.8,N
1627243515.5,286046998.7,N
1627243535.3,286046998.3,N
1627243555.1,286046998.8,N
1627243575.9,286046998.9,N
1627243595.7,286047000.7,N
1627243615.5,286047001.2,N
1627243635.4,286047000.4,N
1627243655.2,286047000.0,N
1627243675.1,286047000.1,N
1627243676.0,286047000.1,N
1627243695.8,286047001.0,N
1627243715.6,286047000.7,N
1627243735.5,286047000.4,N
1627243755.3,286047000.5,N
1627243775.1,286047000.8,N
1627243795.9,286046998.5,N
1627243815.7,286047000.7,N
1627243835.6,286047000.9,N
1627243855.4,286047000.5,N
1627243875.2,286047001.1,N
1627243895.1,286046998.1,N
1627243896.0,286046998.1,N
1627243915.8,286046999.0,N
1627243935.6,286046998.7,N
1627243955.5,286046998.6,N
1627243975.3,286047001.2,N
1627243995.2,286047000.6,N
1627244015.9,286047002.5,N
1627244035.7,286047000.0,N
1627244055.6,286047000.5,N
1627244075.4,286046999.9,N
1627244095.2,286046998.1,N
1627244115.1,286046998.6,N
1627244116.0,286046998.6,N
1627244135.8,286046999.1,N
1627244155.7,286046998.8,N
1627244175.5,286046999.4,N
1627244195.3,286046998.9,N
1627244215.2,286046998.4,N
1627244235.0,286046998.3,N
1627244235.9,286046998.3,N
1627244255.7,286046998.8,N
1627244275.6,286046998.4,N
1627244295.4,286046998.6,N
1627244315.3,286046998.3,N
1627244335.1,286046998.4,N
1627244336.0,286046998.4,N
1627244355.8,286046998.3,N
1627244375.7,286046998.5,N
1627244395.5,286046998.7,N
1627244415.3,286046998.9,N
1627244435.2,286046998.4,N
1627244455.0,286047000.6,N
1627244455.9,286047000.6,N
1627244475.8,286047001.0,N
1627244495.6,286047000.2,N
1627244515.4,286047000.2,N
1627244535.3,286047000.1,N
1627244555.1,286047002.8,Y
1627244575.9,286047004.4,P
1627244595.7,286047001.8,N
1627244615.5,286047001.8,N
1627244635.4,286047002.4,N
1627244655.2,286047000.2,N
1627244675.0,286046999.8,N
1627244676.0,286046999.8,N
1627244695.8,286047002.7,N
1627244715.6,286047000.9,N
1627244735.5,286047000.3,N
1627244755.3,286046999.7,N
1627244775.1,286047000.1,N
1627244795.9,286047000.6,N
1627244815.7,286047000.5,N
1627244835.5,286047000.9,N
1627244855.4,286047000.5,N
1627244875.2,286047001.2,N
1627244895.1,286047001.2,N
1627244896.0,286047001.2,N
1627244915.8,286047001.0,N
1627244935.6,286047000.9,N
1627244955.5,286047000.4,N
1627244975.3,286047000.9,N
1627244995.1,286047000.6,N
1627245015.9,286047000.3,N
1627245035.7,286046999.9,N
1627245055.6,286046999.9,N
1627245075.4,286047002.3,N
1627245095.2,286047000.1,N
1627245115.1,286046999.9,N
1627245116.0,286046999.9,N
1627245135.8,286047000.6,N
1627245155.6,286047001.0,N
1627245175.5,286047002.4,Y
1627245195.3,286047001.0,P
1627245245.2,286047002.5,E
1627245255.1,286047000.4,N
1627245275.8,286046998.6,P
1627245295.7,286046998.9,N
1627245315.5,286046999.2,N
1627245335.4,286046997.2,Y
1627245355.2,286046997.5,P
1627245375.0,286046997.4,N
1627245375.9,286046997.4,P
1627245395.8,286046997.6,Y
1627245415.6,286046998.2,P
1627245435.4,286046998.5,P
1627245455.3,286047000.5,N
1627245475.1,286047001.2,N
1627245495.9,286046998.2,N
1627245515.7,286046999.1,N
1627245535.5,286046998.8,N
1627245555.4,286047000.5,N
1627245575.2,286047000.9,N
1627245595.0,286047000.6,N
1627245595.9,286047000.6,N
1627245615.8,286047001.0,N
1627245635.6,286046998.2,N
1627245655.5,286046998.2,N
1627245675.3,286047001.0,N
1627245695.1,286047000.9,N
1627245715.9,286047000.5,N
1627245735.7,286047000.3,N
1627245755.5,286046999.9,N
1627245775.4,286047002.4,N
1627245795.2,286047002.8,N
1627245815.0,286047000.3,N
1627245816.0,286047000.3,N
1627245835.8,286046999.8,N
1627245855.6,286047000.1,N
1627245875.5,286047002.1,N
1627245895.3,286047001.6,N
1627245915.1,286047004.4,Y
1627245935.9,286047002.0,P
1627245955.7,286047002.4,N
1627245975.6,286047001.8,N
1627245995.4,286047001.8,N
1627246015.2,286047002.2,N
1627246035.1,286047002.3,Y
1627246036.0,286047002.3,P
1627246055.8,286046998.4,P
1627246075.6,286046998.9,N
1627246095.5,286046998.1,N
1627246115.3,286046999.3,N
1627246135.2,286046999.6,N
1627246155.9,286046996.6,N
1627246175.7,286046997.3,N
1627246195.6,286046997.1,N
1627246215.4,286046997.1,N
1627246235.2,286046997.6,N
1627246255.1,286046997.4,N
1627246256.0,286046997.4,N
1627246275.8,286046996.8,N
1627246295.7,286046996.6,N
1627246315.5,286046996.7,N
1627246335.3,286046999.5,N
1627246355.2,286046996.5,N
1627246375.9,286046997.0,N
1627246395.7,286046999.1,N
1627246415.6,286046998.6,N
1627246435.4,286046998.4,N
1627246455.2,286046998.7,N
1627246475.1,286046998.6,N
1627246476.0,286046998.6,N
1627246495.8,286047001.1,N
1627246515.7,286046998.6,N
1627246535.5,286046998.3,N
1627246555.3,286046998.4,N
1627246575.2,286046998.8,N
1627246595.0,286046999.2,N
1627246595.9,286046999.2,N
1627246615.8,286046999.6,N
1627246635.6,286046997.0,N
1627246655.4,286046998.7,N
1627246675.3,286046999.3,N
1627246695.1,286046999.4,N
1627246715.8,286046998.9,N
1627246735.7,286046999.5,N
1627246755.5,286046996.9,N
1627246775.4,286046997.0,N
1627246795.2,286046996.8,N
